www.pogodaiklimat.ru

Погода и климат >> Архив погоды >> Словакия >> Прьевидза


ПОГОДА в Прьевидзе

  • Прогноз погоды в Прьевидзе
  • Монитор погоды в Прьевидзе

АРХИВ ПОГОДЫ в Прьевидзе

Время (UTC), дата Ветер
(напр.,м/с)
 
Видим.   Явления Облачность Т
(С)
Тd
(С)
f
(%)
Тe
(С)
Тes
(С)
Комфортность P
(гПа)
Po
(гПа)
Тmin
(С)
Tmax
(С)
R
(мм)
R24
(мм)
S
(см)
16 10.07 СЗ 5 40 км 6/4 1500 м
[Sc diur, vesp Ac As]
+22.0 +4.1 31 +22 +23 комфорт 1013.2 983.2
17 10.07 СЗ 5 40 км 8/1 1500 м
[Sc diur, vesp Ac As Ci fib]
+21.1 +5.1 35 +22 +22 комфорт 1013.7 983.6
18 10.07 С 3 40 км 8/6 1500 м
[Sc Ac lent]
+19.1 +5.6 41 +20 +20 1014.1 983.8 +22.4
19 10.07 СВ 3 40 км 5/4 1500 м
[Sc Ac lent]
+17.3 +6.5 49 +17 +17 1014.5 984.0
20 10.07 30 км 4/3 1500 м
[Sc Ci fib]
+15.6 +6.6 55 1015.2 984.5
21 10.07 штиль 0 н/о н/о +14.1 +6.9 62 +14 +14 1015.3 984.5
22 10.07 н/о н/о +12.4 +7.1 70 1015.5 984.5
23 10.07 штиль 0 н/о н/о +11.3 +6.8 74 +11 +11 1015.6 984.5
00 11.07 С 2 н/о н/о +11.4 +6.7 73 +10 +10 1015.4 984.3
01 11.07 ЮЗ 1 н/о н/о +10.4 +6.9 79 +10 +10 1015.1 983.9
02 11.07 СВ 1 н/о н/о +10.8 +7.1 78 +11 +11 1014.7 983.5
03 11.07 н/о н/о +10.1 +7.0 81 1014.7 983.5
04 11.07 штиль 0 н/о н/о +9.7 +6.8 82 +9 +9 1014.8 983.5
05 11.07 н/о н/о +11.9 +7.8 76 1014.4 983.4
06 11.07 нст 1 50 км 3/1 1350 м
[Cu med, cong Ac trans Cc]
+15.1 +8.1 63 +16 +20 1014.0 983.3 +9.6
07 11.07 50 км 4/4 1380 м
[Sc diur, vesp Ac lent]
+17.5 +8.6 56 1013.4 983.0
08 11.07 СВ 2 50 км 4/4 1380 м
[Sc diur, vesp Ac lent]
+22.3 +12.3 53 +25 +32 комфорт 1012.9 983.0
09 11.07 нст 1 50 км 5/4 1410 м
[Sc diur, vesp Ac lent]
+19.5 +8.5 49 +21 +31 комфорт 1012.9 982.7
10 11.07 СЗ 4 50 км 5/5 1440 м
[Sc diur, vesp Ac lent]
+20.8 +6.4 39 +22 +28 комфорт 1012.2 982.2
11 11.07 СЗ 6 50 км 6/6 1470 м
[Sc diur, vesp Ac lent]
+22.7 +5.6 33 +23 +26 комфорт 1011.4 981.6
12 11.07 СЗ 8 50 км 6/6 1500 м
[Sc diur, vesp]
+21.0 +6.6 39 +22 +23 комфорт 1011.9 981.9
13 11.07 С 4 50 км 6/6 1500 м
[Sc diur, vesp]
+23.1 +6.8 35 +24 +27 комфорт 1011.1 981.3
14 11.07 СВ 3 40 км {ливн. осадки} 8/8 1500 м
[Sc diur, vesp]
+19.2 +10.0 55 +20 +22 1011.7 981.5
15 11.07 С 2 50 км {ливн. осадки} 5/5 1500 м
[Sc diur, vesp]
+21.2 +8.8 45 +22 +26 комфорт 1011.3 981.3
16 11.07 С 3 50 км 5/5 1410 м
[Sc diur, vesp]
+22.4 +9.6 44 +24 +25 комфорт 1010.9 981.1
17 11.07 50 км 3/3 1410 м
[Cu med, cong Ac lent]
+21.7 +9.3 45 1011.0 981.1
18 11.07 нст 2 50 км {ливн. осадки} 1/1 1380 м
[Cu med, cong Ac lent]
+21.0 +9.6 48 +23 +23 комфорт 1011.3 981.3 +23.6 1
19 11.07 С 3 50 км 1/0
[Ac lent]
+18.0 +9.1 56 +18 +18 1012.2 981.9
20 11.07 С 3 50 км 1/1 1350 м
[Sc diur, vesp Ci fib]
+15.5 +8.3 62 +15 +15 1013.0 982.4
21 11.07 н/о н/о +13.6 +8.7 72 1013.7 982.9
22 11.07 СВ 2 н/о н/о +12.7 +8.2 74 +12 +12 1014.0 983.1
23 11.07 СЗ 1 н/о н/о +11.2 +7.7 79 +11 +11 1014.4 983.3
00 12.07 нст 1 н/о н/о +10.8 +7.5 80 +11 +11 1014.1 983.0
01 12.07 н/о н/о +9.6 +6.9 83 1014.1 982.8
02 12.07 н/о н/о +8.9 +6.5 85 1014.0 982.7
03 12.07 н/о н/о +8.4 +6.4 87 1014.1 982.7
04 12.07 н/о н/о +9.4 +7.0 85 1014.1 982.8
05 12.07 н/о н/о +11.4 +8.1 80 1013.9 982.8
06 12.07 нст 2 40 км 4/1 900 м
[Cu hum Ac lent Ci fib]
+16.2 +8.4 60 +16 +20 1013.2 982.7 +8.4
07 12.07 С 2 40 км 8/1 900 м
[Cu hum Ac As Ci fib]
+19.5 +8.8 50 +21 +26 комфорт 1012.8 982.6
08 12.07 ЮЗ 3 40 км 9/1 1350 м
[Cu med, cong Ac As]
+20.7 +8.7 46 +22 +26 комфорт 1012.4 982.4
09 12.07 ЮЗ 4 45 км 8/1 1440 м
[Cu med, cong Ac lent Cs]
+21.2 +9.8 48 +23 +28 комфорт 1012.4 982.4
10 12.07 ЮЗ 5 45 км 9/3 1500 м
[Cu med, cong Ac lent Cs]
+21.3 +9.9 48 +23 +26 комфорт 1012.2 982.2
11 12.07 ЮЗ 4 40 км 9/3 1200 м
[Cu med, cong Ac As]
+19.7 +9.6 52 +21 +24 комфорт 1012.2 982.1
12 12.07 Ю 4 25 км слаб. дождь 9/4 1200 м
[Sc diur, vesp Ac As]
+19.2 +11.3 60 +20 +23 1012.2 982.0 0.0
13 12.07 ЮЗ 3 30 км в посл. час дождь 9/4 1200 м
[Cu Sc Ac As]
+19.2 +11.0 59 +20 +23 1012.1 981.9
14 12.07 ЮЗ 3 30 км 9/4 1350 м
[Sc Ac As]
+19.5 +11.3 59 +21 +23 комфорт 1011.9 981.8
15 12.07 ЮЗ 3 30 км слаб. дождь 9/5 1200 м
[Cu Sc Ac As]
+19.4 +11.7 61 +21 +22 комфорт 1011.6 981.5
16 12.07 Ю 3 30 км в посл. час дождь 9/4 1200 м
[Cu Sc Ac lent Ci sp]
+19.7 +11.5 59 +21 +22 комфорт 1011.2 981.1
17 12.07 Ю 3 30 км 8/5 1200 м
[Cu Sc Ac lent Ci sp]
+18.6 +11.7 64 +19 +20 1011.1 980.9
18 12.07 ЮЗ 2 40 км {дождь} 6/4 1200 м
[Cu Sc Ac lent Ci fib]
+18.2 +12.4 69 +19 +19 1011.0 980.8 +22.6 0.0
19 12.07 30 км 6/1 1200 м
[Sc diur, vesp Ac lent]
+17.0 +12.6 75 1011.6 981.2
20 12.07 Ю 1 30 км 6/0
[Ac lent]
+16.0 +12.6 80 +17 +17 1011.9 981.4
21 12.07 ЮЗ 2 н/о н/о +14.8 +12.1 84 +14 +14 1011.8 981.2
22 12.07 н/о н/о +14.6 +11.9 84 1012.1 981.5
23 12.07 н/о н/о +13.9 +11.6 86 1012.0 981.3
00 13.07 С 2 н/о н/о +13.4 +11.4 88 +13 +13 1011.6 980.8
01 13.07 н/о н/о +13.2 +10.9 86 1011.2 980.4
02 13.07 н/о н/о +13.5 +10.7 83 1010.9 980.2
03 13.07 штиль 0 н/о н/о +13.4 +10.9 85 +13 +13 1010.7 980.0
04 13.07 н/о н/о +13.7 +11.4 86 1010.8 980.1
05 13.07 н/о н/о +15.3 +11.9 80 1010.5 980.0
06 13.07 нст 1 20 км 9/4 1000 м
[Sc diur, vesp Ac As]
+16.8 +11.7 72 +18 +19 1010.2 979.9 +13.0
07 13.07 Ю 3 20 км 10/3 1000 м
[Sc Ac As]
+17.2 +12.9 76 +17 +19 1010.4 980.1
08 13.07 20 км 10/5 1000 м
[Sc Ac As]
+18.3 +13.0 71 1010.2 980.0
09 13.07 Ю 2 25 км 9/4 1080 м
[Cu med, cong Ac As]
+19.6 +12.1 62 +22 +25 комфорт 1009.8 979.8
10 13.07 22 км 9/5 1300 м
[Cu med, cong Ac lent]
+22.1 +11.8 52 1009.0 979.2
11 13.07 СЗ 2 25 км 9/6 1380 м
[Cu med, cong Ac lent]
+21.6 +11.9 54 +24 +27 комфорт 1008.7 978.9
12 13.07 З 4 30 км 9/5 1410 м
[Cu med, cong Ac lent]
+21.5 +12.4 56 +24 +26 комфорт 1008.5 978.7
13 13.07 З 3 35 км 8/6 1500 м
[Cu med, cong Ac lent]
+23.5 +11.2 46 +25 +28 комфорт 1008.1 978.5
14 13.07 35 км 8/5 1500 м
[Cu med, cong Ac cuf Ci fib]
+23.3 +10.4 44 1008.0 978.4
15 13.07 СВ 6 30 км слаб. ливневой дождь 9/8 1320 м
[Cu med, cong Ac cuf Ci fib]
+19.4 +12.0 62 +20 +21 1009.2 979.2
16 13.07 С 6 20 км слаб. ливневой дождь 9/9 1260 м
[Cu med, cong]
+17.6 +11.0 65 +17 +17 1010.0 979.7
17 13.07 С 2 30 км в посл. час ливневой дождь 9/5 1230 м
[Sc diur, vesp Ac cuf Ci fib]
+16.5 +12.7 78 +17 +17 1010.2 979.8
18 13.07 нст 1 н/о {ливн. осадки} н/о +16.1 +13.2 83 +17 +17 1010.3 979.9 +24.9 0.9
19 13.07 25 км 9/9 1080 м
[Sc diur, vesp]
+16.0 +13.1 83 1010.5 980.1
20 13.07 20 км 9/9 1140 м
[Sc]
+15.8 +13.8 88 1010.8 980.4
21 13.07 н/о н/о +15.3 +13.7 90 1011.0 980.5
22 13.07 н/о н/о +14.6 +13.0 90 1011.0 980.4
23 13.07 н/о н/о +14.0 +12.7 92 1011.3 980.6
00 14.07 СЗ 1 н/о н/о +13.5 +12.6 94 +14 +14 1011.2 980.5
01 14.07 н/о н/о +13.5 +12.4 93 1011.0 980.3
02 14.07 С 2 н/о н/о +13.2 +12.2 94 +12 +12 1010.8 980.1
03 14.07 н/о н/о +13.2 +12.2 94 1010.9 980.2
04 14.07 штиль 0 н/о н/о +13.6 +12.5 93 +13 +13 1011.1 980.4
05 14.07 н/о н/о +14.1 +12.6 91 1011.2 980.6
06 14.07 штиль 0 25 км 9/9 1380 м
[Sc Ac lent]
+16.1 +13.0 82 +16 +17 1011.1 980.7 +13.2
07 14.07 25 км 9/9 1350 м
[Sc Ac lent]
+17.8 +13.9 78 1011.4 981.1
08 14.07 С 5 25 км 9/8 1410 м
[Sc diur, vesp Ac lent]
+19.9 +11.4 58 +21 +22 комфорт 1011.6 981.5
09 14.07 СВ 4 30 км 8/8 1410 м
[Sc diur, vesp Ac lent]
+21.5 +11.0 51 +23 +25 комфорт 1011.4 981.5
10 14.07 С 3 30 км 8/8 1440 м
[Sc diur, vesp Ac lent]
+22.1 +10.0 46 +24 +27 комфорт 1011.0 981.1
11 14.07 С 6 30 км 8/8 1470 м
[Sc diur, vesp]
+23.1 +9.2 41 +25 +26 комфорт 1010.6 980.9
12 14.07 С 7 35 км 8/8 1440 м
[Sc diur, vesp Ci fib]
+23.4 +10.5 44 +25 +26 комфорт 1010.4 980.7
13 14.07 С 6 30 км 9/9 1500 м
[Sc diur, vesp]
+23.2 +10.0 43 +25 +25 комфорт 1010.5 980.8
14 14.07 С 5 35 км 9/9 1500 м
[Sc diur, vesp Ac trans]
+22.3 +9.2 43 +24 +24 комфорт 1010.8 981.0
15 14.07 С 5 40 км 9/9 1500 м
[Sc diur, vesp Ac lent]
+22.2 +10.1 46 +24 +24 комфорт 1010.5 980.7
16 14.07 СЗ 5 35 км 8/5 1500 м
[Sc diur, vesp Cs]
+22.2 +9.7 45 +24 +25 комфорт 1010.8 981.0
17 14.07 СВ 4 35 км 8/8 1500 м
[Sc diur, vesp Ac lent]
+20.1 +10.0 52 +22 +22 комфорт 1011.4 981.3
18 14.07 С 4 40 км 3/1 1440 м
[Cu med, cong As trans Cc]
+19.7 +8.7 49 +21 +21 комфорт 1011.6 981.5 +24.1
19 14.07 С 4 40 км 3/1 1410 м
[Sc diur, vesp Ac lent Ci fib]
+17.9 +8.2 53 +18 +18 1012.4 982.1
20 14.07 С 2 40 км 1/1 1380 м
[Sc diur, vesp Ac lent]
+16.6 +8.3 58 +17 +17 1013.1 982.6
21 14.07 н/о н/о +15.7 +9.2 65 1013.4 982.8
22 14.07 н/о н/о +15.0 +9.4 69 1013.7 983.0
23 14.07 СЗ 1 н/о н/о +14.2 +9.4 73 +15 +15 1014.0 983.2
00 15.07 СВ 2 н/о н/о +13.5 +9.4 76 +13 +13 1013.9 983.1
01 15.07 н/о н/о +12.2 +9.0 81 1013.9 982.9
02 15.07 н/о н/о +11.8 +8.6 81 1013.8 982.8
03 15.07 н/о н/о +10.5 +7.9 84 1014.1 982.9
04 15.07 н/о н/о +10.7 +8.3 85 1014.1 983.0
05 15.07 н/о н/о +13.0 +8.9 76 1014.0 983.1
06 15.07 С 2 30 км 1/1 1380 м
[Cu hum]
+16.6 +9.5 63 +17 +21 1013.7 983.2 +10.1
07 15.07 35 км 1/1 1440 м
[Cu hum]
+18.7 +9.8 56 1013.8 983.5
08 15.07 СВ 2 35 км 4/4 1500 м
[Cu med, cong]
+21.0 +8.3 44 +23 +30 комфорт 1013.4 983.4
09 15.07 нст 4 40 км 5/5 1500 м
[Cu hum]
+22.1 +7.2 38 +23 +28 комфорт 1013.1 983.2
10 15.07 С 7 45 км 4/4 1500 м
[Cu hum]
+22.4 +5.4 33 +23 +26 комфорт 1012.9 983.0
11 15.07 С 6 50 км 4/4 1500 м
[Cu hum]
+22.7 +5.2 32 +23 +27 комфорт 1012.9 983.0
12 15.07 С 6 50 км 4/4 1500 м
[Cu hum]
+23.9 +4.8 29 +24 +28 комфорт 1012.5 982.7
13 15.07 С 6 55 км 4/4 2000 м
[Cu hum]
+24.6 +2.7 24 +24 +27 комфорт 1012.2 982.5
14 15.07 С 6 60 км 3/3 2000 м
[Cu hum]
+24.6 +2.7 24 +24 +27 комфорт 1012.0 982.3
15 15.07 СЗ 5 60 км 3/3 2000 м
[Cu hum Ac lent]
+24.5 +2.0 23 +23 +26 комфорт 1011.8 982.1
16 15.07 С 5 60 км 1/1 2000 м
[Cu hum]
+24.0 +2.8 25 +23 +25 комфорт 1011.7 982.0
17 15.07 С 5 60 км 1/1 1500 м
[Sc diur, vesp]
+23.6 +2.5 25 +23 +24 комфорт 1012.0 982.2
18 15.07 СЗ 2 60 км ясно +22.2 +3.4 29 +22 +22 комфорт 1012.2 982.3 +24.8
19 15.07 СВ 2 50 км ясно +19.0 +4.8 39 +20 +20 1013.0 982.7
20 15.07 С 2 40 км ясно +16.3 +6.4 52 +16 +16 1013.6 983.1
21 15.07 н/о н/о +13.9 +6.0 59 1014.4 983.6
22 15.07 С 1 н/о н/о +12.6 +5.8 63 +13 +13 1014.8 983.8
23 15.07 ЮЗ 1 н/о н/о +10.7 +6.5 75 +10 +10 1015.3 984.1
00 16.07 С 1 н/о н/о +10.2 +6.2 76 +10 +10 1015.4 984.1
01 16.07 н/о н/о +9.7 +5.7 76 1015.3 984.0
02 16.07 С 1 н/о н/о +9.1 +5.6 79 +9 +9 1015.4 984.0
03 16.07 н/о н/о +8.8 +5.5 80 1015.4 984.0
04 16.07 н/о н/о +9.4 +5.8 78 1015.1 983.8
05 16.07 н/о н/о +12.0 +6.7 70 1014.9 983.9
06 16.07 С 2 40 км 4/0
[Ci fib]
+16.4 +6.5 52 +17 +21 1014.3 983.7 +8.7
07 16.07 40 км 5/1 1080 м
[Cu hum Ci fib]
+19.6 +7.4 45 1013.6 983.4
08 16.07 Ю 2 40 км 4/3 1200 м
[Cu hum Ci fib]
+22.4 +8.2 40 +24 +32 комфорт 1013.0 983.1
09 16.07 Ю 4 35 км 5/5 1350 м
[Cu hum Ci fib]
+23.5 +8.4 38 +24 +29 комфорт 1012.3 982.5
10 16.07 ЮЗ 3 35 км 6/6 1500 м
[Cu med, cong Ci fib]
+23.3 +9.7 42 +25 +31 комфорт 1012.3 982.5
11 16.07 ЮЗ 2 30 км 5/4 1500 м
[Cu med, cong Ci fib]
+24.6 +9.8 39 +25 +36 комфорт 1011.5 981.9
12 16.07 СЗ 4 35 км 6/5 1500 м
[Cu med, cong Ci fib]
+24.6 +10.9 42 +26 +31 жарко 1011.0 981.4
13 16.07 З 5 35 км 6/5 1500 м
[Cu med, cong Ci fib]
+25.2 +9.5 37 +26 +29 жарко 1011.0 981.4
14 16.07 З 6 35 км 5/4 1500 м
[Cu med, cong Ci fib]
+26.5 +10.2 36 +27 +29 жарко 1010.6 981.2
15 16.07 СЗ 6 40 км 4/3 1500 м
[Cu med, cong Ac lent Ci fib]
+25.4 +8.9 35 +26 +28 жарко 1010.6 981.1
16 16.07 СЗ 6 45 км 3/1 1500 м
[Cu hum Ci fib]
+25.0 +8.9 36 +26 +27 жарко 1010.6 981.0
17 16.07 З 5 45 км 1/1 1500 м
[Cu hum]
+24.5 +8.5 36 +25 +26 комфорт 1010.5 980.9
18 16.07 СЗ 4 40 км 1/1 1500 м
[Sc diur, vesp]
+22.4 +9.2 43 +24 +24 комфорт 1011.1 981.3 +26.7
19 16.07 З 4 30 км 1/1 1500 м
[Sc diur, vesp]
+20.1 +9.4 50 +21 +21 комфорт 1011.7 981.6
20 16.07 З 3 30 км 1/1 1500 м
[Sc diur, vesp]
+18.5 +7.9 50 +19 +19 1012.8 982.5
21 16.07 СЗ 1 н/о н/о +15.9 +7.9 59 +17 +17 1013.3 982.7
22 16.07 штиль 0 н/о н/о +14.5 +8.2 66 +14 +14 1013.6 982.9
23 16.07 н/о н/о +12.9 +7.8 71 1014.1 983.2
00 17.07 нст 1 н/о н/о +11.4 +7.7 78 +11 +11 1014.2 983.1
01 17.07 штиль 0 н/о н/о +10.6 +7.3 80 +10 +10 1014.3 983.1
02 17.07 штиль 0 н/о н/о +9.6 +6.7 82 +9 +9 1014.3 983.0
03 17.07 н/о н/о +9.2 +6.6 84 1014.3 983.0
04 17.07 н/о н/о +9.7 +6.8 82 1014.5 983.2
05 17.07 штиль 0 н/о н/о +12.2 +7.7 74 +12 +12 1014.2 983.2
06 17.07 нст 2 50 км 1/1 1350 м
[Cu hum Cc]
+15.5 +9.0 65 +15 +20 1013.8 983.2 +9.0
07 17.07 50 км 1/1 1380 м
[Cu hum Cc]
+18.6 +8.9 53 1013.3 983.0
08 17.07 50 км 3/3 1410 м
[Sc diur, vesp Cc]
+20.6 +8.0 44 1012.9 982.8
09 17.07 СВ 6 50 км 3/3 1440 м
[Cu med, cong Cc]
+21.7 +7.2 39 +23 +27 комфорт 1012.5 982.5
10 17.07 З 3 50 км 3/3 1470 м
[Cu med, cong Cc]
+21.6 +7.8 41 +23 +33 комфорт 1012.3 982.3
11 17.07 С 3 50 км 3/3 1500 м
[Sc diur, vesp Ci fib]
+22.3 +7.3 38 +23 +33 комфорт 1011.9 982.0
12 17.07 С 3 50 км 3/3 1500 м
[Sc diur, vesp Ci fib]
+23.6 +6.9 34 +24 +33 комфорт 1011.6 981.8
13 17.07 С 3 50 км 3/3 1500 м
[Cu hum Ci fib]
+24.3 +6.6 32 +24 +32 комфорт 1011.1 981.4
14 17.07 50 км 3/3 1500 м
[Cu hum Ci fib]
+25.6 +6.3 29 1010.6 981.1
15 17.07 С 3 50 км 3/3 1500 м
[Cu hum Ci fib]
+26.1 +6.7 29 +26 +30 жарко 1010.4 980.9
16 17.07 С 3 50 км 3/3 1500 м
[Cu hum Ci fib]
+25.6 +6.8 30 +25 +27 комфорт 1010.2 980.7

 

Местоположение метеостанции Прьевидза (Словакия): широта 48.77 долгота 18.60 высота над уровнем моря 261 м.

В архиве по умолчанию представлена погода в Прьевидзе за последнюю неделю. Архивные данные за месяц целиком и за предыдущие месяцы, начиная с января 2011 года, Вы можете получить, выбрав интересующий диапазон дат из раскрывающегося списка и нажав кнопку "Ввод!".


*Определитесь, кто Вы:
робот инопланетянин человек

Внимание! Время в таблицах - всемирное. Для получения местного времени необходимо прибавить поправку, которая равна 1 ч.

Смотрите также архив погоды в соседних городах и на ближайших метеорологических станциях:

Погода в Жьяр-над-Гроном (Словакия) (28 км)
Погода в Слиаче (Словакия) (43 км)
Погода в Жилине (Словакия) (51 км)
Погода в Моховце (Словакия) (56 км)
Погода в Пьештяни (Словакия) (59 км)
Погода в Нитре (Словакия) (65 км)
Погода в Дудинце (Словакия) (70 км)
Погода в Ясловске Богунице (Словакия) (76 км)
Погода на Хопке (Словакия) (77 км)
Погода в Хосталкова, Маруска (Чехия) (87 км)

Пояснения к столбцам:

Ветер - указаны скорость ветра в м/с - средняя за 10 мин, порывы в срок и между сроками (в фигурных скобках) и направление, откуда дует ветер: С - северный, СВ - северо-восточный, В - восточный, ЮВ - юго-восточный, Ю - южный, ЮЗ - юго-западный, З - западный, СЗ - северо-западный.
Видимость - горизонтальная дальность видимости в метрах или километрах. При видимости от 1 до 10 км при отсутствии осадков обычно наблюдается дымка, при ухудшении видимости до 1 км и менее - туман. В сухую погоду видимость может ухудшаться дымом, пылью или мглою.
Явления - указаны атмосферные явления, наблюдавшиеся в срок или в последний час перед сроком; фигурными скобками обозначены явления, наблюдавшиеся между сроками (за 1-3 часа до срока); квадратными скобками обозначены град или гололедные отложения с указанием их диаметра в мм.
Облачность - указаны через наклонную черту общая и нижняя облачность в баллах и высота нижней границы облаков в метрах; квадратными скобками обозначены формы облаков: Ci - перистые, Cs - перисто-слоистые, Cc - перисто-кучевые, Ac - высококучевые, As - высокослоистые, Sc - слоисто-кучевые, Ns - слоисто-дождевые, Cu - кучевые, Cb - кучево-дождевые. Подробнее классификацию облаков см. в Атласе облаков (PDF).
T - Температура воздуха - температура, измеренная на высоте 2 м над землей.
Td - Температура точки росы - температура, при понижении до которой содержащийся в воздухе водяной пар достигнет насыщения.
f - Относительная влажность воздуха - влажноcть воздуха, измеренная на высоте 2 м над землей.
Te - Эффективная температура - температура, которую ощущает одетый по сезону человек в тени. Характеристика душности погоды. При расчете учитывается влияние влажности воздуха и скорости ветра на теплоощущения человека.
Tes - Эффективная температура на солнце - температура, которую ощущает человек, с поправкой на солнечный нагрев. Характеристика знойности погоды. Зависит от высоты солнца над горизонтом, облачности и скорости ветра. Ночью, в пасмурную погоду, а также при ветре 12 м/с и более поправка равна нулю.
P - Атмосферное давление - приведенное к уровню моря атмосферное давление.
Po - Атмосферное давление - измеренное на уровне метеостанции атмосферное давление.
Tmin - Минимальная температура - минимум температуры воздуха на высоте 2 м над землей.
Tmax - Максимальная температура - максимум температуры воздуха на высоте 2 м над землей.
R - Количество осадков - Количество выпавших осадков за период времени, мм. При наведении курсора мыши на число - период времени, за который выпало указанное количество осадков.
R24 - Количество осадков - Количество выпавших осадков за 24 часа, мм.
S - Снежный покров - Высота снежного покрова, см. При наведении курсора мыши на число - состояние снежного покрова и степень покрытия местности в баллах.